NOAA 16 DEB, 42415

Orbit data source: Space-Track

NOAA 16 DEB, 42415 is space debris in SSO originally from a launch on Thu, 21 Sep 2000 UTC launched from the Air Force Western Test Range (AFWTR). Debris objects in space refer to the collection of defunct objects orbiting the Earth. Examples of debris include non-operational satellites, rocket bodies, and fragments generated from explosions, collisions, or faulty payload assembly.

Loading next visibility...
Identifier
42415, 2000-055TK
Orbit
SSO
Country
Flag of USUS
Related business
Manufacturer
Unknown
Mission
Spacecraft
Bus & Motor
Unknown
Mass
Unknown
Launch date (UTC)
2000-09-21 (25 years ago)
Launch vehicle
Unknown
Launch site
Air Force Western Test Range (AFWTR)
Object type
Payload
Rocket body
Debris
Shape & HBR
Unknown shape, 0.1 m
Radar Cross Section
Small (<0.1 m²)

Expand to show TLE details & history
Last TLE update: 13 hours ago

TLE from 13 hours ago
0 NOAA 16 DEB
1 42415U 00055TK  25353.00577367  .00005256  00000-0  15676-2 0  9994
2 42415  99.0201 167.3996 0024585 313.5325  46.3821 14.43305956508362
Epoch: 2025-12-19T00:08Z
TLE epoch observation values (Epoch: 2025-12-19T00:08:18.845Z)
Latitude
0.00004°
Longitude
77.46794°
Altitude
738.468 km
Speed
7.492 km/s
True Right ascension
11h 09m 35s
True Declination
0° 00' 00"
Sunlit
Object was in daylight at epoch
Visualization orbit readout
Latitude
Unknown
Longitude
Unknown
Altitude
Unknown
Speed
Unknown
Apparent Right ascension
Unknown
Apparent Declination
Unknown
Sunlit
N/A
Visualization observer readout
Local Sidereal Time
12:29:26
Azimuth
Unknown
Elevation
Unknown
Doppler factor
Unknown
Orbital elements
Apogee altitude
762.251 km
Perigee altitude
727.228 km
Semi-major axis
7,122.876 km
Eccentricity
0.00246
Inclination
99.0201°
RAAN
167.3996°
Arg. of periapsis
313.5325°
True anomaly
46.58649°
Mean anomaly
46.3821°
Eccentric anomaly
46.48425°
Mean motion
3.61044 °/min
Orbital period
99.71 mins
BSTAR
0.0015676
Loading maneuver chart data...
Computing Atmospheric mass density...
Loading historical data...
Loading historical data...
Loading historical data...
Loading historical data...
Loading historical data...
Loading historical data...
Loading historical data...

Documentation

Showing up to 5 results
|